"Pseudo-MPEC" for P12pBgv

Created 2026 Sep 5 8:35:09 UT using Find_Orb

Click here for an explanation of pseudo-MPECs

 
 Astrometry: 
     P12pBgv 0C2026 09 04.33607523 10 12.550-26 45 13.83   ~9545 19.92gUNEOCPI41
     P12pBgv 0C2026 09 04.41589223 10 08.458-26 38 46.29   ~9545 19.25rUNEOCPI41
     P12pBgv*0C2026 09 04.41932623 10 10.202-26 38 25.86   ~94CK 19.50wXNEOCPF51
     P12pBgv 0C2026 09 04.42997023 10 09.630-26 37 34.45   ~94CK 19.49wXNEOCPF51
     P12pBgv 0C2026 09 04.44065523 10 09.060-26 36 42.74   ~94CK 19.51wXNEOCPF51
     P12pBgv 0C2026 09 04.45144723 10 08.481-26 35 50.44   ~94CK 19.52wXNEOCPF51
     P12pBgv 0C2026 09 04.52490723 10 04.593-26 29 51.27   ~94MK 19.24GVNEOCPF51
     P12pBgv 0C2026 09 04.52555523 10 04.566-26 29 48.16   ~94MK 19.25GVNEOCPF51
     P12pBgv |C2026 09 05.08271023 09 48.650-25 43 21.00   ~952Z 19.2 GVNEOCP807
     P12pBgv |C2026 09 05.08689023 09 48.470-25 43 00.10   ~952Z 19.4 GVNEOCP807
     P12pBgv |C2026 09 05.09107023 09 48.240-25 42 39.70   ~952Z 19.4 GVNEOCP807

Station data:
(807) Cerro Tololo Observatory, La Serena  (S30.169133 W70.805900)  Chile.
   Observer R. Holmes. 0.61-m f/6.5 astrograph + CCD.
(F51) Pan-STARRS 1, Haleakala  (N20.707234 W156.255910)  US/Hawaii.
   Observers J. Herman, T. Lowe, P. Minguez, A. Schultz, I. Smith. Measurers
   K. Chambers, T. de Boer, J. Fairlamb, H. Gao, M. Huber, C.-C. Lin, E.
   Magnier, Y. Ramanjooloo, R. Wainscoat, R. Weryk. 1.8-m Ritchey-Chrétien +
   CCD.
(I41) Palomar Mountain--ZTF  (N33.357336 W116.859780)  US/California.
   Observers B. T. Bolin, Z. T. F. Collaboration. Measurers B. T. Bolin,
   Z.-Y. Lin, F. J. Masci. 1.2-m f/2.4 Schmidt.

Orbital elements:  P12pBgv
   Perihelion 2026 Sep 29.246642 +/- 0.596 TT =  5:55:09.9 (JD 2461312.746642)
Epoch 2026 Sep  5.0 TT = JDT 2461288.5   Earth MOID: 0.1612      AutoNEOCP
M 354.938750256 +/- 0.10            (J2000 ecliptic)
n   0.208740232 +/- 0.00543         Peri.   12.815878 +/- 0.7
a   2.814482858 +/- 0.0488          Node   351.841631 +/- 0.054
e   0.58802485 +/- 0.00747          Incl.   16.478033 +/- 0.11
P   4.72169                H 21.72  G  0.15   U  9.2
q 1.159496985 +/- 0.00245    Q 4.469468731 +/- 0.0984
From 11 observations 2026 Sept. 4-5 (18.1 hr); mean residual 0".13
Residuals in arcseconds: 
260904 I41  .04+  .13+    260904 F51  .02+  .01-    260905 807  .09-  .12-    
260904 I41  .46-  .12+    260904 F51  .02+  .03-    260905 807  .20+  .17+    
260904 F51  .02+  .06-    260904 F51  .00   .07+    260905 807  .17-  .06-    
260904 F51  .02-  .03-    260904 F51  .08+  .01-    

Ephemerides (geocentric):
Date (UTC) HH   RA             Dec           delta  r     elong  mag " sig PA
---- --------  ------------   ------------  ------ ------ -----  --- --------
2026 09 05 09  23 09 36.306   -25 18 56.77  .19595 1.1955 161.3 19.4 .269  42
2026 09 05 10  23 09 34.823   -25 15 25.18  .19579 1.1954 161.3 19.4 .294  40
2026 09 05 11  23 09 33.337   -25 11 53.18  .19562 1.1952 161.4 19.4 .320  38
2026 09 05 12  23 09 31.850   -25 08 20.75  .19546 1.1951 161.4 19.4 .347  37
2026 09 05 13  23 09 30.360   -25 04 47.90  .19530 1.1950 161.5 19.4 .374  35
2026 09 05 14  23 09 28.867   -25 01 14.62  .19513 1.1949 161.5 19.4 .402  34
2026 09 05 15  23 09 27.373   -24 57 40.92  .19497 1.1948 161.6 19.4 .430  33
2026 09 05 16  23 09 25.876   -24 54 06.80  .19481 1.1946 161.6 19.4 .459  32
2026 09 05 17  23 09 24.378   -24 50 32.25  .19464 1.1945 161.7 19.4 .489  31
2026 09 05 18  23 09 22.877   -24 46 57.27  .19448 1.1944 161.7 19.4 .520  30
2026 09 05 19  23 09 21.374   -24 43 21.87  .19432 1.1943 161.8 19.4 .551  29
2026 09 05 20  23 09 19.869   -24 39 46.05  .19416 1.1942 161.8 19.4 .583  29
2026 09 05 21  23 09 18.362   -24 36 09.80  .19400 1.1940 161.9 19.4 .616  28
2026 09 05 22  23 09 16.852   -24 32 33.13  .19384 1.1939 161.9 19.4 .649  27
2026 09 05 23  23 09 15.341   -24 28 56.03  .19367 1.1938 162.0 19.4 .683  27
2026 09 06 00  23 09 13.828   -24 25 18.51  .19351 1.1937 162.0 19.4 .718  26
2026 09 06 01  23 09 12.312   -24 21 40.56  .19335 1.1936 162.1 19.4 .753  26
2026 09 06 02  23 09 10.794   -24 18 02.18  .19319 1.1934 162.1 19.4 .789  25
2026 09 06 03  23 09 09.275   -24 14 23.38  .19304 1.1933 162.2 19.4 .825  25
2026 09 06 04  23 09 07.753   -24 10 44.15  .19288 1.1932 162.2 19.4 .863  24
2026 09 06 05  23 09 06.230   -24 07 04.50  .19272 1.1931 162.3 19.4 .901  24
2026 09 06 06  23 09 04.704   -24 03 24.42  .19256 1.1930 162.3 19.4 .939  23
2026 09 06 07  23 09 03.177   -23 59 43.92  .19240 1.1928 162.4 19.3 .979  23
2026 09 06 08  23 09 01.647   -23 56 02.99  .19224 1.1927 162.4 19.3 1.02  22
2026 09 06 09  23 09 00.116   -23 52 21.64  .19209 1.1926 162.5 19.3 1.06  22
2026 09 06 10  23 08 58.582   -23 48 39.85  .19193 1.1925 162.5 19.3 1.10  22
2026 09 06 11  23 08 57.047   -23 44 57.65  .19177 1.1924 162.6 19.3 1.14  21
2026 09 06 12  23 08 55.510   -23 41 15.01  .19162 1.1922 162.6 19.3 1.19  21
2026 09 06 13  23 08 53.971   -23 37 31.95  .19146 1.1921 162.7 19.3 1.23  21
2026 09 06 14  23 08 52.430   -23 33 48.47  .19131 1.1920 162.7 19.3 1.27  20
2026 09 06 15  23 08 50.887   -23 30 04.55  .19115 1.1919 162.8 19.3 1.32  20
2026 09 06 16  23 08 49.342   -23 26 20.21  .19100 1.1918 162.8 19.3 1.37  20
2026 09 06 17  23 08 47.796   -23 22 35.45  .19084 1.1917 162.9 19.3 1.41  19
2026 09 06 18  23 08 46.248   -23 18 50.26  .19069 1.1915 162.9 19.3 1.46  19
2026 09 06 19  23 08 44.697   -23 15 04.64  .19054 1.1914 163.0 19.3 1.51  19
2026 09 06 20  23 08 43.145   -23 11 18.60  .19038 1.1913 163.0 19.3 1.56  19
2026 09 06 21  23 08 41.592   -23 07 32.13  .19023 1.1912 163.1 19.3 1.61  18
2026 09 06 22  23 08 40.036   -23 03 45.23  .19008 1.1911 163.1 19.3 1.66  18
2026 09 06 23  23 08 38.479   -22 59 57.91  .18993 1.1910 163.2 19.3 1.71  18
2026 09 07 00  23 08 36.920   -22 56 10.16  .18978 1.1909 163.2 19.3 1.76  18
2026 09 07 01  23 08 35.359   -22 52 21.99  .18962 1.1907 163.3 19.3 1.81  17
2026 09 07 02  23 08 33.797   -22 48 33.39  .18947 1.1906 163.4 19.3 1.86  17
2026 09 07 03  23 08 32.233   -22 44 44.36  .18932 1.1905 163.4 19.3 1.92  17
2026 09 07 04  23 08 30.667   -22 40 54.91  .18917 1.1904 163.5 19.3 1.97  17
2026 09 07 05  23 08 29.100   -22 37 05.03  .18902 1.1903 163.5 19.3 2.03  16
2026 09 07 06  23 08 27.531   -22 33 14.73  .18887 1.1902 163.6 19.3 2.09  16
2026 09 07 07  23 08 25.960   -22 29 24.00  .18872 1.1901 163.6 19.3 2.14  16
2026 09 07 08  23 08 24.388   -22 25 32.84  .18858 1.1899 163.7 19.3 2.20  16